Tenerife, Spain

10:09 PM WET on November 17, 2018 (GMT +0000)
Tenerife

Weather History for GCXO - November, 2018

Change the Weather History Date:

Friday, November 9, 2018

  Actual Average Record
Temperature  
Mean Temperature 61 °F -  
Max Temperature 67 °F 63 °F 86 °F (1998)
Min Temperature 55 °F 54 °F 55 °F (2000)
Degree Days  
Heating Degree Days 4    
Growing Degree Days 11 (Base 50)    
Moisture  
Dew Point 58 °F    
Average Humidity 90    
Maximum Humidity 100    
Minimum Humidity 67    
Precipitation  
Precipitation 0.02 in - - ()
Sea Level Pressure  
Sea Level Pressure 30.26 in    
Wind  
Wind Speed 6 mph ()    
Max Wind Speed 10 mph    
Max Gust Speed -    
Visibility 6.9 miles    
Events Fog , Rain    
Averages and records for this station are not official NWS values.
T = Trace of Precipitation, MM = Missing Value Source: Averaged Metar Reports

Daily Weather History Graph

Daily Weather History Graph

Search for Another Location

Airport or City:

Astronomy

Nov. 09, 2018 Rise Set
Actual Time 7:22 AM WET 6:14 PM WET
Civil Twilight 6:58 AM WET 6:39 PM WET
Nautical Twilight 6:30 AM WET 7:07 PM WET
Astronomical Twilight 6:02 AM WET 7:35 PM WET
Moon 8:57 AM WET (11/9) 7:56 PM WET (11/9)
Length of Visible Light 11h 41m
Length of Day
10h 52m
Waxing Crescent, 4% of the Moon is Illuminated
Nov 9
Waxing Crescent
Nov 15
First Quarter
Nov 23
Full
Nov 30
Last Quarter
Dec 7
New

Hourly Weather History & Observations

Time (WET) Temp. Dew Point Humidity Pressure Visibility Wind Dir Wind Speed Gust Speed Precip Events Conditions
12:00 AM 58 °F 55 °F 88% 30.25 in 19 mi NW 4.6 mph - -  
12:00 AM 59.0 °F 55.4 °F 88% 30.27 in 6.2 mi NW 4.6 mph - N/A   Partly Cloudy
12:30 AM 59.0 °F 55.4 °F 88% 30.27 in 6.2 mi West 5.8 mph - N/A   Overcast
1:00 AM 59.0 °F 55.4 °F 88% 30.27 in 6.2 mi West 4.6 mph - N/A   Overcast
1:30 AM 59.0 °F 57.2 °F 94% 30.24 in 6.2 mi West 6.9 mph - N/A   Overcast
2:00 AM 59.0 °F 57.2 °F 94% 30.24 in 6.2 mi WNW 5.8 mph - N/A   Mostly Cloudy
2:30 AM 59.0 °F 59.0 °F 100% 30.24 in 5.6 mi West 5.8 mph - N/A   Overcast
3:00 AM 59.0 °F 59.0 °F 100% 30.24 in 4.3 mi WNW 5.8 mph - N/A Rain Light Rain
4:00 AM 59.0 °F 59.0 °F 100% 30.24 in 6.2 mi West 6.9 mph - N/A   Overcast
4:30 AM 59.0 °F 59.0 °F 100% 30.24 in 4.3 mi West 6.9 mph - N/A Rain Light Rain
5:00 AM 59.0 °F 59.0 °F 100% 30.24 in 6.2 mi West 6.9 mph - N/A   Mostly Cloudy
5:30 AM 59.0 °F 59.0 °F 100% 30.24 in 6.2 mi West 8.1 mph - N/A   Overcast
6:00 AM 60 °F 59 °F 97% 30.22 in 4 mi WNW 8.1 mph - - Rain Light Drizzle
6:00 AM 59.0 °F 59.0 °F 100% 30.24 in 5.6 mi WNW 6.9 mph - N/A Fog Light Drizzle
6:30 AM 59.0 °F 59.0 °F 100% 30.24 in 5.6 mi WNW 5.8 mph - N/A Fog Light Drizzle
7:00 AM 59.0 °F 59.0 °F 100% 30.24 in 5.6 mi West 6.9 mph - N/A   Light Drizzle
7:30 AM 59.0 °F 59.0 °F 100% 30.27 in 6.2 mi West 4.6 mph - N/A   Light Drizzle
8:00 AM 60.8 °F 59.0 °F 94% 30.27 in 6.2 mi West 3.5 mph - N/A   Mostly Cloudy
8:30 AM 60.8 °F 60.8 °F 100% 30.27 in 5.6 mi West 5.8 mph - N/A Fog Patches of Fog
8:41 AM 60.8 °F 60.8 °F 100% 30.27 in 2.5 mi WNW 8.1 mph - N/A Fog Patches of Fog
9:00 AM 60.8 °F 60.8 °F 100% 30.27 in 4.3 mi NW 6.9 mph - N/A Fog Patches of Fog
9:18 AM 60.8 °F 60.8 °F 100% 30.30 in 6.2 mi NW 3.5 mph - N/A   Mostly Cloudy
10:00 AM 62.6 °F 60.8 °F 94% 30.30 in 5.0 mi WNW 4.6 mph - N/A Fog Patches of Fog
10:16 AM 62.6 °F 60.8 °F 94% 30.30 in 5.6 mi NW 6.9 mph - N/A Fog Mostly Cloudy
10:30 AM 62.6 °F 60.8 °F 94% 30.30 in 5.6 mi NNW 6.9 mph - N/A Fog Patches of Fog
11:00 AM 62.6 °F 60.8 °F 94% 30.30 in 5.6 mi North 6.9 mph - N/A   Mostly Cloudy
11:30 AM 62.6 °F 60.8 °F 94% 30.30 in 6.2 mi North 5.8 mph - N/A   Mostly Cloudy
12:00 PM 62.6 °F 60.8 °F 94% 30.30 in 6.2 mi North 6.9 mph - N/A   Light Drizzle
12:30 PM 64.4 °F 60.8 °F 88% 30.27 in 6.2 mi NW 4.6 mph - N/A   Mostly Cloudy
1:00 PM 64.4 °F 60.8 °F 88% 30.27 in 6.2 mi North 6.9 mph - N/A   Mostly Cloudy
1:30 PM 64.4 °F 59.0 °F 83% 30.24 in 6.2 mi NNE 6.9 mph - N/A   Mostly Cloudy
2:30 PM 64.4 °F 57.2 °F 77% 30.24 in 6.2 mi North 6.9 mph - N/A   Mostly Cloudy
3:00 PM 66 °F 58 °F 67% 30.18 in 19 mi NNW 8.1 mph - -   Partly Cloudy
3:00 PM 66.2 °F 57.2 °F 73% 30.24 in 6.2 mi NNW 6.9 mph - N/A   Mostly Cloudy
4:00 PM 64.4 °F 57.2 °F 77% 30.24 in 6.2 mi North 10.4 mph - N/A   Mostly Cloudy
4:30 PM 62.6 °F 57.2 °F 82% 30.24 in 6.2 mi North 9.2 mph - N/A   Mostly Cloudy
5:00 PM 62.6 °F 55.4 °F 77% 30.24 in 6.2 mi North 10.4 mph - N/A   Mostly Cloudy
5:30 PM 62.6 °F 55.4 °F 77% 30.24 in 6.2 mi NNW 9.2 mph - N/A   Mostly Cloudy
6:00 PM 61 °F 55 °F 75% 30.20 in 19 mi NNW 9.2 mph - -   Mostly Cloudy
6:00 PM 62.6 °F 55.4 °F 77% 30.24 in 6.2 mi NNW 8.1 mph - N/A   Mostly Cloudy
6:30 PM 60.8 °F 55.4 °F 82% 30.24 in 6.2 mi NNW 6.9 mph - N/A   Mostly Cloudy
7:00 PM 60.8 °F 55.4 °F 82% 30.24 in 6.2 mi NW 8.1 mph - N/A   Mostly Cloudy
7:30 PM 59.0 °F 55.4 °F 88% 30.24 in 6.2 mi NW 6.9 mph - N/A   Mostly Cloudy
8:00 PM 59.0 °F 55.4 °F 88% 30.27 in 6.2 mi NW 6.9 mph - N/A   Mostly Cloudy
9:00 PM 59 °F 55 °F 82% 30.25 in 19 mi NW 9.2 mph - -  
9:00 PM 59.0 °F 53.6 °F 82% 30.27 in 6.2 mi NW 8.1 mph - N/A   Scattered Clouds
10:00 PM 57.2 °F 53.6 °F 88% 30.27 in 6.2 mi NNW 5.8 mph - N/A   Scattered Clouds
10:30 PM 57.2 °F 51.8 °F 82% 30.27 in 6.2 mi NNW 6.9 mph - N/A   Partly Cloudy
11:00 PM 57.2 °F 53.6 °F 88% 30.27 in 6.2 mi NW 5.8 mph - N/A   Scattered Clouds
11:30 PM 55.4 °F 51.8 °F 88% 30.27 in 6.2 mi NW 4.6 mph - N/A   Partly Cloudy